This is the latest recevied weather packets stored in our database for station/object N4DWK. If no packets are shown the sender has not sent any weather packets the latest 10 day(s).
| Time | Temp. | Humidity | Pressure | Rain* | Wind** | Luminosity | Snow |
|---|---|---|---|---|---|---|---|
| 1777665605 | 21.67° C | 39% | 1012.3 hPa | 0 mm | - | 522 W/m² | - |
| 1777665305 | 21.67° C | 38% | 1012.3 hPa | 0 mm | - | 533 W/m² | - |
| 1777665005 | 21.11° C | 38% | 1012.4 hPa | 0 mm | - | 536 W/m² | - |
| 1777664705 | 21.11° C | 37% | 1012.5 hPa | 0 mm | - | 522 W/m² | - |
| 1777664406 | 21.11° C | 38% | 1012.6 hPa | 0 mm | - | 561 W/m² | - |
| 1777664105 | 21.11° C | 41% | 1012.5 hPa | 0 mm | - | 564 W/m² | - |
| 1777663805 | 21.11° C | 40% | 1012.5 hPa | 0 mm | - | 517 W/m² | - |
| 1777663506 | 21.11° C | 41% | 1012.8 hPa | 0 mm | - | 582 W/m² | - |
| 1777663206 | 22.22° C | 41% | 1012.9 hPa | 0 mm | - | 591 W/m² | - |
| 1777662906 | 21.11° C | 41% | 1013 hPa | 0 mm | - | 592 W/m² | - |
| 1777662605 | 20.56° C | 43% | 1013 hPa | 0 mm | - | 601 W/m² | - |
| 1777662305 | 20.56° C | 40% | 1013 hPa | 0 mm | - | 608 W/m² | - |
| 1777662006 | 20.56° C | 39% | 1013.1 hPa | 0 mm | - | 617 W/m² | - |
| 1777661705 | 20.56° C | 40% | 1013.2 hPa | 0 mm | - | 621 W/m² | - |
| 1777661405 | 20° C | 40% | 1013.4 hPa | 0 mm | - | 629 W/m² | - |
| 1777661105 | 20.56° C | 38% | 1013.5 hPa | 0 mm | - | 636 W/m² | - |
| 1777660806 | 21.11° C | 41% | 1013.7 hPa | 0 mm | - | 642 W/m² | - |
| 1777660505 | 20.56° C | 40% | 1013.8 hPa | 0 mm | - | 643 W/m² | - |
| 1777660205 | 20.56° C | 39% | 1013.9 hPa | 0 mm | - | 652 W/m² | - |
| 1777659905 | 20.56° C | 40% | 1013.9 hPa | 0 mm | - | 656 W/m² | - |
| 1777659606 | 20.56° C | 41% | 1014.1 hPa | 0 mm | - | 657 W/m² | - |
| 1777659306 | 20° C | 39% | 1014.1 hPa | 0 mm | - | 661 W/m² | - |
| 1777659006 | 20° C | 42% | 1014.2 hPa | 0 mm | - | 670 W/m² | - |
| 1777658706 | 20° C | 42% | 1014.2 hPa | 0 mm | - | 668 W/m² | - |
| 1777658406 | 19.44° C | 42% | 1014.2 hPa | 0 mm | - | 677 W/m² | - |
* Rain latest hour (hover to see other rain measurements)
** Current wind speed in m/s (hover to see current wind gust speed)